Location: Aula-Vintri
(58.3875°N, 22.4322°E)
Time: 22:25:58
(UTC+00:00)

Cosmos 1937 Rocket - Pass Details

Date: 13 October 2019
Orbit: 747 x 780 km, 74.0° (Epoch: 14 November)

Event Time Altitude Azimuth Distance (km) Brightness Sun altitude
Rises 19:32:22 0° 328° (NNW) 3,218 7.8 -30.6°
Reaches altitude 10° 19:34:47 10° 323° (NW) 2,286 6.8 -30.8°
Enters shadow 19:38:56 45° 281° (W) 1,013 4.3 -31.2°
